星链-34181 (STARLINK-34181)

导读 | 豆包AI

STARLINK-34181是美国SpaceX星链星座中的一颗卫星,于2025年5月24日发射升空。星链项目旨在构建全球卫星互联网星座,为全球偏远及网络欠发达地区提供高速互联网接入服务,该卫星加入星座后进一步扩充了星链网络的覆盖能力与服务容量,推动低轨卫星互联网部署进程。

基本信息
目录编号:
64144
目录名称:
STARLINK-34181
国际标识:
2025-111X
轨道中心:
EARTH
卫星名称:
星链-34181
卫星全名:
星链-34181 (STARLINK-34181)
卫星状态:
在轨 (已飞行294 天)
发射日期:
2025-05-24 UTC
国别 :
美国 (US)
星等 :
--
轨道信息
数据来源 国际轨道数据
星历时间: 2026-03-13T16:29:29+0800
1天前
查看轨道信息
半长轴: 6861.148km
偏心率: 0.0001434
轨道倾角: 43.005°
近地点辐角 258.089°
升交点赤经 57.184°
平近点角 101.980°
近地点: 482.027km
远地点: 483.995km
周期: 94.266分钟
每日圈数: 15.275928
详细信息
固有亮度:
5
最大亮度:
2.5
卫星平台:
Starlink V1.0
覆盖范围:
全球
运营商:
太空探索技术公司
运营商所在国:
美国
制造商(研发单位):
太空探索技术公司
制造商所在国:
美国
使用方式:
暂无
卫星简介
Starlink 计划是 SpaceX 推出的全球卫星互联网项目,通过发射低轨道卫星,为全球尤其是偏远地区提供高速、低延迟的互联网服务。自 2019 年起,Starlink 已部署数千颗卫星,旨在缩小全球数字鸿沟,推动互联网普及。该项目还为军事、航空等行业提供通信支持,带来广泛经济效益。
2D轨道图
3D轨道图
轨道高度分析图
轨道倾角分析图
轨道综合分析图
查看轨道综合分析图